Weather Roundup
Issued by NWS Chicago, IL

Home | Current Version | Previous Version | Graphics & Text | Print | Product List | Glossary On
Versions: 1 2 3 4 5 6 7 8 9 10 11 12 13 14 15 16 17 18 19 20 21 22 23 24 25 26 27 28 29 30 31 32 33 34 35 36 37 38 39 40 41 42 43 44 45 46 47 48 49 50
000
NZUS59 KLOT 122000
HRRLOT

CHICAGO AREA WEATHER ROUNDUP
NATIONAL WEATHER SERVICE CHICAGO/ROMEOVILLE IL
300 PM CDT SAT JUL 12 2014

NOTE: "FAIR" INDICATES FEW OR NO CLOUDS BELOW 12,000 FEET WITH NO
SIGNIFICANT WEATHER AND/OR OBSTRUCTIONS TO VISIBILITY.

* THESE STATIONS ARE NOT UNDER NWS QUALITY CONTROL. THEY ALSO MAY NOT
  REPORT WEATHER SUCH AS PRECIPITATION OR FOG.

ILZ005-006-012>014-019>023-122100-
NORTHEAST ILLINOIS

CITY           SKY/WX    TMP DP  RH WIND       PRES   REMARKS
OHARE          CLOUDY    78  67  68 SW20G29   29.99F HX  80
MIDWAY         CLOUDY    78  70  76 SW12G25   29.99F HX  80
AURORA         CLOUDY    77  70  79 SW14      30.02F
WAUKEGAN       CLOUDY    77  69  76 SW13G20   29.97S
DUPAGE AIRPORT CLOUDY    77  70  79 SW16      30.01F
WHEELING       CLOUDY    79  69  71 SW13      30.00S HX  81
NORTHERLY IS     N/A     77  68  73 S8          N/A
$$

WIZ051-052-058>065-066-070>072-122100-
SOUTHEAST WISCONSIN

CITY           SKY/WX    TMP DP  RH WIND       PRES   REMARKS
MILWAUKEE      CLOUDY    76  69  79 SW14      29.98F
KENOSHA*       CLOUDY    77  71  82 W13G22    29.98F
RACINE*        CLOUDY    76  69  79 W10G18    29.99F
WAUKESHA       CLOUDY    73  68  83 MISG      29.99F
$$

INZ001>003-010>013-019-020-122100-
NORTHWEST INDIANA

CITY           SKY/WX    TMP DP  RH WIND       PRES   REMARKS
GARY*          CLOUDY    77  70  78 SW14G28   30.02S
MICHIGAN CITY* NOT AVBL
RENSSELAER*    NOT AVBL
VALPARAISO     CLOUDY    76  70  82 SW16      30.02F
$$

LMZ740>746-122100-
SOUTHERN LAKE MICHIGAN

STATION/POSITION TIME  SKY/WX   TEMP WIND        PRES    VSBY
                                AIR  DIR/SP/G
                 (UTC)          (F)  (DEG/KT/KT) (MB)    (MI)
HARRISON CRIB    1900            75  220/ 16/ 22   N/A
BURNHAM HARBOR   2000            77  200/ 11/ 17   N/A
CALUMET HARBOR   1900            76  210/ 12/ 17 1016.7F
BURNS HARBOR     NOT AVBL
MICHIGAN CITY    1900            72  180/ 17/ 21   N/A
$$

ABBREVIATIONS USED IN REMARKS
   TC - TEMPERATURE IN CELSIUS
  WCI - WIND CHILL INDEX
   HX - HEAT INDEX
  VSB - VISIBILITY
$$


USA.gov is the U.S. government's official web portal to all federal, state and local government web resources and services.